N912LL KENW-K0C8

Flight info

Callsign N912LL
Flight time 0h 35m
Altitude 2500
Route KMKE 68IS 30IS K0C8
Aircraft M20T/L-S/C

Departure

Time 2026-05-03 20:56
Airport Kenosha Regional Airport (KENW)

Arrival

Time 2026-05-03 21:31
Airport Cushing Field Ltd Airport (K0C8)
Time Latitude Longitude Altitude Speed Heading
2026-05-03 20:43 42.59752 -87.92180 730 ft 0 kts 53°
2026-05-03 20:46 42.59746 -87.92192 730 ft 2 kts 53°
2026-05-03 20:46 42.59738 -87.92206 730 ft 2 kts 53°
2026-05-03 20:46 42.59734 -87.92213 730 ft 0 kts 53°
2026-05-03 20:51 42.59750 -87.92209 730 ft 4 kts 327°
2026-05-03 20:51 42.59779 -87.92227 730 ft 5 kts 337°
2026-05-03 20:52 42.59812 -87.92248 730 ft 5 kts 332°
2026-05-03 20:52 42.59846 -87.92271 730 ft 6 kts 336°
2026-05-03 20:52 42.59874 -87.92263 730 ft 7 kts 58°
2026-05-03 20:52 42.59905 -87.92181 730 ft 11 kts 66°
2026-05-03 20:53 42.59940 -87.92082 730 ft 12 kts 64°
2026-05-03 20:53 42.59976 -87.91984 730 ft 10 kts 63°
2026-05-03 20:53 42.60015 -87.91927 730 ft 9 kts 346°
2026-05-03 20:53 42.60024 -87.91931 730 ft 0 kts 332°
2026-05-03 20:54 42.60026 -87.91932 730 ft 3 kts 332°
2026-05-03 20:54 42.60086 -87.91981 730 ft 13 kts 304°
2026-05-03 20:55 42.60034 -87.92157 729 ft 40 kts 249°
2026-05-03 20:55 42.59868 -87.92637 766 ft 68 kts 240°
2026-05-03 20:55 42.59618 -87.93239 914 ft 80 kts 239°
2026-05-03 20:55 42.59230 -87.93892 1096 ft 98 kts 225°
2026-05-03 20:56 42.58649 -87.94415 1381 ft 101 kts 217°
2026-05-03 20:56 42.58039 -87.94925 1660 ft 104 kts 217°
2026-05-03 20:56 42.57429 -87.95509 1810 ft 115 kts 218°
2026-05-03 20:56 42.56771 -87.96159 2041 ft 120 kts 214°
2026-05-03 20:57 42.56122 -87.96836 2259 ft 119 kts 226°
2026-05-03 20:57 42.55527 -87.97662 2327 ft 129 kts 226°
2026-05-03 20:57 42.54886 -87.98574 2329 ft 136 kts 226°
2026-05-03 20:57 42.54208 -87.99516 2333 ft 141 kts 225°
2026-05-03 20:58 42.53559 -88.00435 2454 ft 132 kts 226°
2026-05-03 20:58 42.52923 -88.01333 2470 ft 131 kts 226°
2026-05-03 20:58 42.52282 -88.02233 2468 ft 133 kts 226°
2026-05-03 20:58 42.51638 -88.03139 2467 ft 136 kts 226°
2026-05-03 20:59 42.50977 -88.04073 2469 ft 137 kts 226°
2026-05-03 20:59 42.50305 -88.05013 2461 ft 138 kts 226°
2026-05-03 20:59 42.49669 -88.05962 2461 ft 134 kts 226°
2026-05-03 20:59 42.49005 -88.06849 2462 ft 134 kts 225°
2026-05-03 21:00 42.48361 -88.07732 2462 ft 134 kts 226°
2026-05-03 21:00 42.47921 -88.08346 2464 ft 135 kts 226°
2026-05-03 21:00 42.47099 -88.09616 2453 ft 136 kts 231°
2026-05-03 21:00 42.46538 -88.10627 2447 ft 133 kts 232°
2026-05-03 21:01 42.45976 -88.11617 2451 ft 133 kts 232°
2026-05-03 21:01 42.45415 -88.12619 2459 ft 133 kts 232°
2026-05-03 21:01 42.44859 -88.13619 2459 ft 136 kts 232°
2026-05-03 21:01 42.44275 -88.14650 2457 ft 139 kts 232°
2026-05-03 21:02 42.43681 -88.15681 2453 ft 138 kts 232°
2026-05-03 21:02 42.43100 -88.16702 2456 ft 136 kts 232°
2026-05-03 21:02 42.42530 -88.17724 2455 ft 136 kts 232°
2026-05-03 21:02 42.41955 -88.18744 2454 ft 136 kts 232°
2026-05-03 21:03 42.41383 -88.19758 2456 ft 135 kts 232°
2026-05-03 21:03 42.40807 -88.20767 2455 ft 135 kts 232°
2026-05-03 21:03 42.40225 -88.21778 2456 ft 136 kts 232°
2026-05-03 21:03 42.39653 -88.22791 2458 ft 138 kts 232°
2026-05-03 21:04 42.39072 -88.23838 2447 ft 139 kts 232°
2026-05-03 21:04 42.38489 -88.24890 2449 ft 140 kts 232°
2026-05-03 21:04 42.37895 -88.25944 2446 ft 140 kts 233°
2026-05-03 21:04 42.37298 -88.26983 2452 ft 139 kts 232°
2026-05-03 21:05 42.36720 -88.28017 2456 ft 138 kts 232°
2026-05-03 21:05 42.36106 -88.29004 2453 ft 140 kts 225°
2026-05-03 21:05 42.35368 -88.29879 2450 ft 140 kts 221°
2026-05-03 21:05 42.34634 -88.30740 2454 ft 139 kts 222°
2026-05-03 21:06 42.33910 -88.31597 2451 ft 138 kts 222°
2026-05-03 21:06 42.33187 -88.32437 2452 ft 138 kts 223°
2026-05-03 21:06 42.32457 -88.33276 2455 ft 138 kts 221°
2026-05-03 21:06 42.31731 -88.34136 2450 ft 138 kts 222°
2026-05-03 21:07 42.31012 -88.34992 2453 ft 138 kts 222°
2026-05-03 21:07 42.30281 -88.35838 2460 ft 139 kts 223°
2026-05-03 21:07 42.29528 -88.36675 2462 ft 141 kts 222°
2026-05-03 21:07 42.28782 -88.37537 2461 ft 141 kts 221°
2026-05-03 21:08 42.28054 -88.38408 2458 ft 140 kts 223°
2026-05-03 21:08 42.27317 -88.39272 2458 ft 139 kts 224°
2026-05-03 21:08 42.26627 -88.40201 2460 ft 141 kts 225°
2026-05-03 21:08 42.25922 -88.41106 2460 ft 141 kts 224°
2026-05-03 21:09 42.25209 -88.42002 2462 ft 139 kts 224°
2026-05-03 21:09 42.24511 -88.42884 2465 ft 138 kts 224°
2026-05-03 21:09 42.23810 -88.43768 2464 ft 138 kts 224°
2026-05-03 21:09 42.23114 -88.44649 2463 ft 139 kts 224°
2026-05-03 21:10 42.22411 -88.45548 2458 ft 138 kts 225°
2026-05-03 21:10 42.21737 -88.46464 2455 ft 137 kts 226°
2026-05-03 21:10 42.21075 -88.47380 2467 ft 136 kts 226°
2026-05-03 21:10 42.20390 -88.48296 2464 ft 140 kts 226°
2026-05-03 21:11 42.19688 -88.49229 2465 ft 142 kts 227°
2026-05-03 21:11 42.18978 -88.50167 2461 ft 144 kts 227°
2026-05-03 21:11 42.18270 -88.51080 2446 ft 141 kts 226°
2026-05-03 21:11 42.17566 -88.51987 2450 ft 140 kts 226°
2026-05-03 21:12 42.16860 -88.52924 2454 ft 144 kts 227°
2026-05-03 21:12 42.16137 -88.53853 2450 ft 145 kts 226°
2026-05-03 21:12 42.15397 -88.54775 2455 ft 144 kts 226°
2026-05-03 21:12 42.14591 -88.55572 2449 ft 144 kts 215°
2026-05-03 21:13 42.13718 -88.56193 2453 ft 140 kts 213°
2026-05-03 21:13 42.12870 -88.56846 2450 ft 141 kts 216°
2026-05-03 21:13 42.12075 -88.57606 2447 ft 138 kts 221°
2026-05-03 21:13 42.11336 -88.58398 2449 ft 136 kts 221°
2026-05-03 21:14 42.10585 -88.59191 2448 ft 137 kts 222°
2026-05-03 21:14 42.09824 -88.59985 2449 ft 139 kts 222°
2026-05-03 21:14 42.09067 -88.60781 2447 ft 139 kts 221°
2026-05-03 21:14 42.08284 -88.61583 2452 ft 144 kts 220°
2026-05-03 21:15 42.07431 -88.62308 2449 ft 147 kts 208°
2026-05-03 21:15 42.06400 -88.62393 2445 ft 154 kts 179°
2026-05-03 21:15 42.05335 -88.62206 2449 ft 155 kts 181°
2026-05-03 21:15 42.04257 -88.61992 2448 ft 156 kts 180°
2026-05-03 21:16 42.03192 -88.61733 2444 ft 153 kts 176°
2026-05-03 21:16 42.02143 -88.61515 2451 ft 152 kts 180°
2026-05-03 21:16 42.01098 -88.61325 2451 ft 154 kts 181°
2026-05-03 21:16 42.00039 -88.61114 2448 ft 153 kts 180°
2026-05-03 21:17 41.98993 -88.60986 2449 ft 150 kts 187°
2026-05-03 21:17 41.98290 -88.60963 2454 ft 150 kts 185°
2026-05-03 21:17 41.96908 -88.60886 2449 ft 150 kts 185°
2026-05-03 21:17 41.95873 -88.60812 2446 ft 147 kts 187°
2026-05-03 21:18 41.94858 -88.60724 2442 ft 145 kts 187°
2026-05-03 21:18 41.93849 -88.60749 2447 ft 145 kts 190°
2026-05-03 21:18 41.92832 -88.60781 2447 ft 146 kts 191°
2026-05-03 21:18 41.91819 -88.60784 2445 ft 145 kts 189°
2026-05-03 21:19 41.90821 -88.60787 2445 ft 142 kts 190°
2026-05-03 21:19 41.89843 -88.60798 2450 ft 143 kts 189°
2026-05-03 21:19 41.88829 -88.60813 2449 ft 147 kts 188°
2026-05-03 21:19 41.87809 -88.60845 2451 ft 146 kts 192°
2026-05-03 21:20 41.86791 -88.60942 2451 ft 146 kts 191°
2026-05-03 21:20 41.85772 -88.61058 2452 ft 147 kts 192°
2026-05-03 21:20 41.84756 -88.61162 2454 ft 147 kts 191°
2026-05-03 21:20 41.83738 -88.61169 2457 ft 149 kts 189°
2026-05-03 21:21 41.82691 -88.61176 2465 ft 151 kts 189°
2026-05-03 21:21 41.81645 -88.61184 2460 ft 149 kts 188°
2026-05-03 21:21 41.80600 -88.61220 2461 ft 152 kts 188°
2026-05-03 21:21 41.79538 -88.61227 2466 ft 157 kts 187°
2026-05-03 21:22 41.78441 -88.61223 2468 ft 157 kts 187°
2026-05-03 21:22 41.77352 -88.61208 2462 ft 156 kts 185°
2026-05-03 21:22 41.76265 -88.61156 2455 ft 155 kts 185°
2026-05-03 21:22 41.75189 -88.61114 2456 ft 153 kts 187°
2026-05-03 21:23 41.74125 -88.61050 2455 ft 153 kts 185°
2026-05-03 21:23 41.73073 -88.60979 2453 ft 153 kts 185°
2026-05-03 21:23 41.72012 -88.60952 2459 ft 152 kts 187°
2026-05-03 21:23 41.70945 -88.60958 2460 ft 153 kts 187°
2026-05-03 21:24 41.69878 -88.60852 2453 ft 157 kts 180°
2026-05-03 21:24 41.68810 -88.60654 2455 ft 152 kts 183°
2026-05-03 21:24 41.67832 -88.60522 2457 ft 131 kts 184°
2026-05-03 21:24 41.66975 -88.60399 2450 ft 116 kts 184°
2026-05-03 21:25 41.66219 -88.60264 2451 ft 104 kts 184°
2026-05-03 21:25 41.65551 -88.60139 2456 ft 90 kts 189°
2026-05-03 21:25 41.64922 -88.60073 2462 ft 92 kts 189°
2026-05-03 21:25 41.64266 -88.60045 2465 ft 99 kts 189°
2026-05-03 21:26 41.63587 -88.60028 2434 ft 93 kts 194°
2026-05-03 21:26 41.62948 -88.60064 2326 ft 92 kts 194°
2026-05-03 21:26 41.62319 -88.60179 2279 ft 88 kts 201°
2026-05-03 21:26 41.61736 -88.60315 2257 ft 85 kts 198°
2026-05-03 21:27 41.61131 -88.60383 2130 ft 91 kts 193°
2026-05-03 21:27 41.60495 -88.60401 2051 ft 92 kts 197°
2026-05-03 21:27 41.59850 -88.60435 1973 ft 91 kts 192°
2026-05-03 21:27 41.59226 -88.60455 1868 ft 89 kts 191°
2026-05-03 21:28 41.58634 -88.60437 1792 ft 81 kts 189°
2026-05-03 21:28 41.58091 -88.60409 1726 ft 77 kts 187°
2026-05-03 21:28 41.57563 -88.60262 1675 ft 78 kts 188°
2026-05-03 21:28 41.57043 -88.60163 1674 ft 76 kts 192°
2026-05-03 21:29 41.56521 -88.60188 1676 ft 75 kts 197°
2026-05-03 21:29 41.56022 -88.60272 1655 ft 71 kts 207°
2026-05-03 21:29 41.55529 -88.60372 1559 ft 75 kts 197°
2026-05-03 21:29 41.54988 -88.60415 1451 ft 80 kts 191°
2026-05-03 21:30 41.54424 -88.60438 1352 ft 80 kts 194°
2026-05-03 21:30 41.53885 -88.60455 1245 ft 76 kts 193°
2026-05-03 21:30 41.53400 -88.60476 1142 ft 65 kts 193°
2026-05-03 21:30 41.52976 -88.60498 941 ft 56 kts 192°
2026-05-03 21:31 41.52596 -88.60493 773 ft 52 kts 191°
2026-05-03 21:31 41.52258 -88.60499 649 ft 44 kts 198°
2026-05-03 21:31 41.52013 -88.60517 633 ft 28 kts 182°
2026-05-03 21:31 41.51891 -88.60509 635 ft 8 kts 75°
2026-05-03 21:32 41.51936 -88.60497 634 ft 7 kts 360°
2026-05-03 21:32 41.51984 -88.60488 633 ft 6 kts 358°
2026-05-03 21:32 41.52010 -88.60490 633 ft 5 kts
2026-05-03 21:32 41.52045 -88.60491 634 ft 5 kts 21°
2026-05-03 21:33 41.52078 -88.60484 635 ft 5 kts 359°
2026-05-03 21:33 41.52114 -88.60487 636 ft 4 kts 349°
2026-05-03 21:33 41.52145 -88.60490 637 ft 6 kts
2026-05-03 21:33 41.52185 -88.60464 640 ft 7 kts 75°
2026-05-03 21:34 41.52191 -88.60405 638 ft 6 kts 357°
2026-05-03 21:34 41.52195 -88.60423 638 ft 0 kts 284°